Time,TemperatureF,DewpointF,PressureIn,WindDirection,WindDirectionDegrees,WindSpeedMPH,WindSpeedGustMPH,Humidity,HourlyPrecipIn,Conditions,Clouds,dailyrainin,SolarRadiationWatts/m^2,SoftwareType,DateUTC
2014-09-17 03:54:00,57.0,45.0,-100.00,WNW,285,7.0,11.0,63,-99.99,,,0.00,0.000000,,2014-09-17 09:54:00,
2014-09-17 04:04:00,57.0,45.0,-100.00,WNW,285,7.0,11.0,63,-99.99,,,0.00,0.000000,,2014-09-17 10:04:00,
2014-09-17 04:13:00,57.0,45.0,-100.00,WNW,285,7.0,11.0,63,-99.99,,,0.00,0.000000,,2014-09-17 10:13:00,
2014-09-17 04:23:00,57.0,45.0,-100.00,WNW,285,7.0,11.0,63,-99.99,,,0.00,0.000000,,2014-09-17 10:23:00,
2014-09-17 04:33:00,57.0,45.0,-100.00,WNW,285,7.0,11.0,63,-99.99,,,0.00,0.000000,,2014-09-17 10:33:00,
2014-09-17 04:53:00,61.0,41.0,-100.00,WNW,293,3.0,12.0,48,0.00,,,0.00,0.000000,,2014-09-17 10:53:00,
2014-09-17 05:03:00,61.0,41.0,-100.00,WNW,293,3.0,12.0,48,0.00,,,0.00,0.000000,,2014-09-17 11:03:00,
2014-09-17 05:13:00,61.0,41.0,-100.00,WNW,293,3.0,12.0,48,0.00,,,0.00,0.000000,,2014-09-17 11:13:00,
2014-09-17 05:23:00,61.0,41.0,-100.00,WNW,293,3.0,12.0,48,0.00,,,0.00,0.000000,,2014-09-17 11:23:00,
2014-09-17 05:33:00,61.0,41.0,-100.00,WNW,293,3.0,12.0,48,0.00,,,0.00,0.000000,,2014-09-17 11:33:00,
2014-09-17 05:53:00,55.0,44.0,-100.00,WNW,288,10.0,23.0,67,0.00,,,0.00,0.000000,,2014-09-17 11:53:00,
2014-09-17 06:02:00,55.0,44.0,-100.00,WNW,288,10.0,23.0,67,0.00,,,0.00,0.000000,,2014-09-17 12:02:00,
2014-09-17 06:13:00,55.0,44.0,-100.00,WNW,288,10.0,23.0,67,0.00,,,0.00,0.000000,,2014-09-17 12:13:00,
2014-09-17 06:22:00,55.0,44.0,-100.00,WNW,288,10.0,23.0,67,0.00,,,0.00,0.000000,,2014-09-17 12:22:00,
2014-09-17 06:32:00,55.0,44.0,-100.00,WNW,288,10.0,23.0,67,0.00,,,0.00,0.000000,,2014-09-17 12:32:00,
2014-09-17 06:53:00,56.0,41.0,-100.00,West,279,10.0,15.0,57,0.00,,,0.00,0.000000,,2014-09-17 12:53:00,
2014-09-17 07:02:00,56.0,41.0,-100.00,West,279,10.0,15.0,57,0.00,,,0.00,0.000000,,2014-09-17 13:02:00,
2014-09-17 07:12:00,56.0,41.0,-100.00,West,279,10.0,15.0,57,0.00,,,0.00,0.000000,,2014-09-17 13:12:00,
2014-09-17 07:23:00,56.0,41.0,-100.00,West,279,10.0,15.0,57,0.00,,,0.00,0.000000,,2014-09-17 13:23:00,
2014-09-17 07:32:00,56.0,41.0,-100.00,West,279,10.0,15.0,57,0.00,,,0.00,0.000000,,2014-09-17 13:32:00,
2014-09-17 08:23:00,60.0,43.0,-100.00,WNW,286,9.0,15.0,54,0.00,,,0.00,57.000000,,2014-09-17 14:23:00,
2014-09-17 08:33:00,60.0,43.0,-100.00,WNW,286,9.0,15.0,54,0.00,,,0.00,57.000000,,2014-09-17 14:33:00,
2014-09-17 08:34:00,65.0,43.0,-100.00,WNW,282,11.0,14.0,44,0.00,,,0.00,210.000000,,2014-09-17 14:34:00,
2014-09-17 09:22:00,65.0,43.0,-100.00,WNW,282,11.0,14.0,44,0.00,,,0.00,210.000000,,2014-09-17 15:22:00,
2014-09-17 10:13:00,71.0,44.0,-100.00,West,280,8.0,14.0,38,0.00,,,0.00,477.000000,,2014-09-17 16:13:00,
2014-09-17 10:24:00,71.0,44.0,-100.00,West,280,8.0,14.0,38,0.00,,,0.00,477.000000,,2014-09-17 16:24:00,
2014-09-17 10:33:00,71.0,44.0,-100.00,West,280,8.0,14.0,38,0.00,,,0.00,477.000000,,2014-09-17 16:33:00,
2014-09-17 11:13:00,75.0,46.0,-100.00,West,276,10.0,22.0,36,0.00,,,-99.99,666.000000,,2014-09-17 17:13:00,
2014-09-17 11:24:00,75.0,46.0,-100.00,West,276,10.0,22.0,36,0.00,,,-99.99,666.000000,,2014-09-17 17:24:00,
2014-09-17 11:33:00,75.0,46.0,-100.00,West,276,10.0,22.0,36,0.00,,,-99.99,666.000000,,2014-09-17 17:33:00,
2014-09-17 11:53:00,80.0,43.0,-100.00,WSW,249,5.0,15.0,27,0.00,,,0.00,803.000000,,2014-09-17 17:53:00,
2014-09-17 12:03:00,80.0,43.0,-100.00,WSW,249,5.0,15.0,27,0.00,,,0.00,803.000000,,2014-09-17 18:03:00,
2014-09-17 12:13:00,80.0,43.0,-100.00,WSW,249,5.0,15.0,27,0.00,,,0.00,803.000000,,2014-09-17 18:13:00,
2014-09-17 12:22:00,80.0,43.0,-100.00,WSW,249,5.0,15.0,27,0.00,,,0.00,803.000000,,2014-09-17 18:22:00,
2014-09-17 12:32:00,80.0,43.0,-100.00,WSW,249,5.0,15.0,27,0.00,,,0.00,803.000000,,2014-09-17 18:32:00,
2014-09-17 12:52:00,85.0,42.0,-100.00,East,86,5.0,10.0,22,0.00,,,0.00,874.000000,,2014-09-17 18:52:00,
2014-09-17 13:02:00,85.0,42.0,-100.00,East,86,5.0,10.0,22,0.00,,,0.00,874.000000,,2014-09-17 19:02:00,
2014-09-17 13:12:00,85.0,42.0,-100.00,East,86,5.0,10.0,22,0.00,,,0.00,874.000000,,2014-09-17 19:12:00,
2014-09-17 13:22:00,85.0,42.0,-100.00,East,86,5.0,10.0,22,0.00,,,0.00,874.000000,,2014-09-17 19:22:00,
2014-09-17 13:32:00,85.0,42.0,-100.00,East,86,5.0,10.0,22,0.00,,,0.00,874.000000,,2014-09-17 19:32:00,
2014-09-17 13:53:00,86.0,38.0,-100.00,East,95,5.0,10.0,18,0.00,,,0.00,859.000000,,2014-09-17 19:53:00,
2014-09-17 14:02:00,86.0,38.0,-100.00,East,95,5.0,10.0,18,0.00,,,0.00,859.000000,,2014-09-17 20:02:00,
2014-09-17 14:12:00,86.0,38.0,-100.00,East,95,5.0,10.0,18,0.00,,,0.00,859.000000,,2014-09-17 20:12:00,
2014-09-17 14:23:00,86.0,38.0,-100.00,East,95,5.0,10.0,18,0.00,,,0.00,859.000000,,2014-09-17 20:23:00,
2014-09-17 14:33:00,86.0,38.0,-100.00,East,95,5.0,10.0,18,0.00,,,0.00,859.000000,,2014-09-17 20:33:00,
2014-09-17 14:52:00,87.0,38.0,-100.00,East,85,4.0,10.0,18,0.00,,,0.00,757.000000,,2014-09-17 20:52:00,
2014-09-17 15:03:00,87.0,38.0,-100.00,East,85,4.0,10.0,18,0.00,,,0.00,757.000000,,2014-09-17 21:03:00,
2014-09-17 15:12:00,87.0,38.0,-100.00,East,85,4.0,10.0,18,0.00,,,0.00,757.000000,,2014-09-17 21:12:00,
2014-09-17 15:54:00,83.0,41.0,-100.00,West,268,8.0,15.0,23,0.00,,,0.00,277.000000,,2014-09-17 21:54:00,
2014-09-17 16:04:00,83.0,41.0,-100.00,West,268,8.0,15.0,23,0.00,,,0.00,277.000000,,2014-09-17 22:04:00,
2014-09-17 16:13:00,83.0,41.0,-100.00,West,268,8.0,15.0,23,0.00,,,0.00,277.000000,,2014-09-17 22:13:00,
2014-09-17 16:23:00,83.0,41.0,-100.00,West,268,8.0,15.0,23,0.00,,,0.00,277.000000,,2014-09-17 22:23:00,
2014-09-17 16:33:00,83.0,41.0,-100.00,West,268,8.0,15.0,23,0.00,,,0.00,277.000000,,2014-09-17 22:33:00,
2014-09-17 16:53:00,87.0,40.0,-100.00,NNE,20,4.0,15.0,19,0.00,,,0.00,458.000000,,2014-09-17 22:53:00,
2014-09-17 17:03:00,87.0,40.0,-100.00,NNE,20,4.0,15.0,19,0.00,,,0.00,458.000000,,2014-09-17 23:03:00,
2014-09-17 17:13:00,87.0,40.0,-100.00,NNE,20,4.0,15.0,19,0.00,,,0.00,458.000000,,2014-09-17 23:13:00,